This is the latest recevied weather packets stored in our database for station/object NQ9F. If no packets are shown the sender has not sent any weather packets the latest 10 day(s).
| Time | Temp. | Humidity | Pressure | Rain* | Wind** | Luminosity | Snow |
|---|---|---|---|---|---|---|---|
| 1777915385 | 23.33° C | 66% | 1011 hPa | 0 mm | - | 787 W/m² | - |
| 1777915080 | 23.33° C | 66% | 1011 hPa | 0 mm | - | 930 W/m² | - |
| 1777914778 | 23.33° C | 66% | 1011.2 hPa | 0 mm | - | 841 W/m² | - |
| 1777914475 | 22.78° C | 67% | 1011 hPa | 0 mm | - | 881 W/m² | - |
| 1777914172 | 22.78° C | 68% | 1011 hPa | 0 mm | - | 754 W/m² | - |
| 1777913868 | 22.78° C | 67% | 1011.2 hPa | 0 mm | - | 735 W/m² | - |
| 1777913565 | 22.78° C | 67% | 1011.5 hPa | 0 mm | - | 532 W/m² | - |
| 1777913261 | 22.78° C | 66% | 1011.3 hPa | 0 mm | - | 850 W/m² | - |
| 1777912959 | 22.78° C | 66% | 1011.6 hPa | 0 mm | - | 868 W/m² | - |
| 1777912654 | 22.22° C | 66% | 1011.7 hPa | 0 mm | - | 863 W/m² | - |
| 1777912350 | 22.78° C | 67% | 1011.6 hPa | 0 mm | - | 787 W/m² | - |
| 1777912046 | 22.22° C | 67% | 1012.1 hPa | 0 mm | - | 704 W/m² | - |
| 1777911743 | 22.78° C | 67% | 1011.8 hPa | 0 mm | - | 770 W/m² | - |
| 1777911440 | 21.67° C | 68% | 1011.8 hPa | 0 mm | - | 750 W/m² | - |
| 1777911136 | 21.67° C | 68% | 1011.7 hPa | 0 mm | - | 831 W/m² | - |
| 1777910834 | 22.22° C | 67% | 1011.6 hPa | 0 mm | - | 710 W/m² | - |
| 1777910530 | 21.67° C | 68% | 1011.8 hPa | 0 mm | - | 735 W/m² | - |
| 1777910227 | 21.67° C | 68% | 1011.6 hPa | 0 mm | - | 643 W/m² | - |
| 1777909924 | 21.67° C | 69% | 1011.7 hPa | 0 mm | - | 590 W/m² | - |
| 1777909621 | 21.11° C | 69% | 1011.8 hPa | 0 mm | - | 708 W/m² | - |
| 1777909319 | 21.11° C | 70% | 1011.6 hPa | 0 mm | - | 598 W/m² | - |
| 1777909016 | 21.11° C | 70% | 1011.8 hPa | 0 mm | - | 630 W/m² | - |
| 1777908714 | 20.56° C | 71% | 1011.9 hPa | 0 mm | - | 459 W/m² | - |
| 1777908411 | 20.56° C | 70% | 1011.9 hPa | 0 mm | - | 567 W/m² | - |
| 1777908107 | 20.56° C | 71% | 1012.2 hPa | 0 mm | - | 618 W/m² | - |
* Rain latest hour (hover to see other rain measurements)
** Current wind speed in m/s (hover to see current wind gust speed)